[[{"header":{"parameterUnit":"m.s-1","parameterCategory":1,"la1":30.2991,"la2":30.254,"lo1":-89.0895,"lo2":-89.0444,"dy":0.0017,"dx":0.0017,"nx":28,"ny":28,"refTime":"2025-05-21T09:00:00:Z","depth":0,"parameterNumber":2,"parameterNumberName":"U-component_of_WINDS"},"data":[0,0,0,0,0,0,0,0,0,0,0,0,0,0,0,0,0,0,0,0,0,0,0,0,0,0,0,0,0,0,0,0,0,0,0,0,0,0,0,0,0,0,0,0,0,0,0,0,0,0,0,0,0,0,0,0,0,0,0.8489,0.8491,0,0.8672,0.8674,0.8676,0.871,0.8709,0.8707,0.8706,0.8896,0.8903,0.8909,0,0,0,0,0,0,0,0,0,0,0,0,0,0.8172,0.8178,0.8488,0.8491,0.8493,0.8671,0.8674,0.8676,0.8711,0.8709,0.8707,0.8705,0.8894,0.8902,0.891,0,0,0,0,0,0,0,0,0,0,0,0,0,0.8328,0.818,0.8488,0.8531,0.8537,0.8671,0.8674,0.8677,0.8711,0.8709,0.8706,0.8704,0.8892,0.8901,0.8911,0.9015,0,0,0.894,0.8944,0,0,0,0,0,0,0,0,0.8319,0.834,0.8523,0.8529,0.8535,0.8666,0.8632,0.879,0.8711,0.8645,0.8706,0.8703,0.8822,0.8837,0.8876,0.9024,0.9032,0.8941,0.8947,0.8951,0.8954,0,0,0,0,0,0,0,0.8308,0.8332,0.8561,0.8525,0.8533,0.8543,0.8563,0.8663,0.8744,0.8651,0.8654,0.8675,0.8825,0.8867,0.8881,0.9035,0.8941,0.8949,0.8955,0.8959,0.928,0.9282,0,0,0,0,0,0,0.8289,0.8323,0.8555,0.8567,0.842,0.8551,0.8573,0.8626,0.8743,0.8758,0.8676,0.8676,0.8851,0.887,0.8888,0.9019,0.8951,0.896,0.8966,0.9277,0.928,0.9283,0,0,0,0,0,0,0.8282,0.831,0.8548,0.8446,0.8477,0.8559,0.8618,0.8631,0.8673,0.8762,0.8777,0.8704,0.885,0.8874,0.8983,0.9026,0.8965,0.8973,0.9274,0.9278,0.9282,0.928,0,0,0,0,0,0,0.8273,0.8307,0.8346,0.8446,0.8482,0.8639,0.8621,0.8636,0.8689,0.869,0.8792,0.8807,0.8851,0.8969,0.8993,0.9038,0.8981,0.927,0.9276,0.9281,0.9277,0.9284,0.929,0,0,0,0,0,0.8262,0.8339,0.8348,0.8376,0.8532,0.8641,0.8662,0.8709,0.8693,0.8734,0.8791,0.8804,0.9017,0.898,0.9007,0.9056,0.9268,0.9274,0.928,0.9274,0.9282,0.929,0,0,0,0,0,0,0.8242,0.8352,0.8364,0.8475,0.8548,0.8647,0.8699,0.8716,0.8797,0.8794,0.8851,0.8874,0.898,0.9029,0.8985,0.9164,0.9142,0.9154,0.9128,0.9137,0.9143,0.9129,0.8989,0,0,0,0,0,0.825,0.8328,0.8421,0.851,0.8546,0.8617,0.8666,0.8696,0.8775,0.8806,0.8872,0.8949,0.9033,0.9088,0.917,0.9285,0.9308,0.9332,0.9338,0.9343,0.9353,0.9419,0.9431,0.9303,0.9303,0.9303,0,0,0.8268,0.8339,0.8384,0.8508,0.8568,0.8649,0.8642,0.8728,0.8789,0.882,0.8926,0.8978,0.9067,0.918,0.9233,0.9224,0.9393,0.9351,0.9354,0.9361,0.9426,0.9438,0.9449,0.9307,0.9307,0.9306,0,0,0.8343,0.8403,0.8485,0.8546,0.8637,0.8684,0.8704,0.88,0.8835,0.8944,0.8969,0.9043,0.9187,0.9251,0.9302,0.9403,0.9419,0.9429,0.9462,0.9526,0.9536,0.9545,0.9582,0.9595,0.9438,0.9438,0.9438,0,0.8354,0.8475,0.8525,0.861,0.8664,0.8696,0.878,0.8837,0.8952,0.8989,0.8978,0.9161,0.9223,0.9352,0.9377,0.9417,0.9443,0.9417,0.953,0.954,0.9549,0.9585,0.9599,0.9439,0.9439,0.9439,0.9439,0,0.8485,0.857,0.8625,0.8734,0.8795,0.8879,0.8943,0.8999,0.9025,0.9074,0.9185,0.9261,0.9361,0.9394,0.942,0.9527,0.9519,0.9518,0.9497,0.9561,0.9596,0.961,0.944,0.944,0.944,0.9439,0,0,0.855,0.8687,0.8706,0.8757,0.8862,0.8929,0.9016,0.9113,0.916,0.9239,0.9314,0.9437,0.9437,0.9495,0.9529,0.9585,0.9662,0.9578,0.9581,0.9591,0.9787,0.9786,0.9801,0.9674,0.9676,0.9679,0.9779,0,0.8637,0.8791,0.8839,0.8969,0.9049,0.9081,0.9158,0.9231,0.9279,0.9355,0.9409,0.9495,0.9489,0.9524,0.9581,0.9641,0.9702,0.9634,0.9745,0.9748,0.9721,0.9819,0.9819,0.991,0.9793,0.9796,0.9797,0,0.8758,0.8839,0.8976,0.9073,0.9108,0.9175,0.9269,0.9341,0.9426,0.9458,0.9523,0.9554,0.9648,0.9622,0.9753,0.9705,0.9754,0.9791,0.9795,0.9807,0.9776,0.9834,0.994,0.9954,0.9819,0.9817,0.9816,0,0.8792,0.8935,0.9036,0.9079,0.9194,0.9241,0.9291,0.9374,0.943,0.9513,0.955,0.9643,0.9694,0.9766,0.9822,0.9797,0.9948,0.9927,0.9978,0.9977,1.0008,1.0005,1.0123,1.0039,1.0039,1.0039,1.0038,0,0.8884,0.8967,0.9053,0.9115,0.921,0.9266,0.9359,0.9411,0.9485,0.956,0.9595,0.9664,0.9733,0.9812,0.9856,0.9959,0.9981,1.001,1.0021,1.0007,1.0003,1.0039,1.0034,1.0042,1.0042,1.0041,1.004,0,0.8937,0.8998,0.911,0.9211,0.9238,0.9304,0.9391,0.9453,0.9504,0.9598,0.9623,0.9703,0.9798,0.9861,0.9982,1.0012,1.0124,1.0133,1.0095,1.01,1.0148,1.0142,1.0293,1.0316,1.0217,1.0218,1.0218,0,0.8991,0.9055,0.9163,0.9215,0.9266,0.9349,0.9407,0.9466,0.9524,0.9628,0.9678,0.9776,0.9856,1.0007,1.0077,1.0171,1.0183,1.0229,1.0197,1.0181,1.0184,1.0179,1.0186,1.0234,1.0234,1.0235,1.0235,0,0.908,0.9108,0.9189,0.9282,0.935,0.9425,0.9502,0.9543,0.9615,0.968,0.9777,0.984,0.9965,1.0061,1.0162,1.0216,1.0239,1.0245,1.0262,1.0248,1.0223,1.0238,1.0109,1.0241,1.0241,1.024,1.024,1.024,0.9136,0.9195,0.9281,0.9371,0.9435,0.9506,0.957,0.9629,0.9711,0.9816,0.9847,0.9949,1.0036,1.0173,1.0229,1.0311,1.0306,1.033,1.0336,1.0341,1.0342,1.0211,1.0329,1.0329,1.0329,1.0329,1.0329,0,0.9227,0.9285,0.9367,0.9472,0.9544,0.9559,0.9645,0.9704,0.9793,0.9871,0.9951,1.0064,1.0159,1.0237,1.0335,1.0385,1.0398,1.0409,1.0406,1.0418,1.034,1.0316,1.0397,1.0397,1.0397,1.0397,1.0397,1.0397,0.9283,0.9385,0.9423,0.9559,0.9616,0.9715,0.9763,0.983,0.9893,1.0017,1.0096,1.0147,1.0226,1.0331,1.0419,1.044,1.0474,1.0483,1.0506,1.0431,1.0423,1.0416,1.0393,1.049,1.049,1.0577,1.0578,1.0579]},{"header":{"parameterUnit":"m.s-1","parameterCategory":1,"la1":30.2991,"la2":30.254,"lo1":-89.0895,"lo2":-89.0444,"dy":0.0017,"dx":0.0017,"nx":28,"ny":28,"refTime":"2025-05-21T09:00:00:Z","depth":0,"parameterNumber":3,"parameterNumberName":"V-component_of_WINDS"},"data":[0,0,0,0,0,0,0,0,0,0,0,0,0,0,0,0,0,0,0,0,0,0,0,0,0,0,0,0,0,0,0,0,0,0,0,0,0,0,0,0,0,0,0,0,0,0,0,0,0,0,0,0,0,0,0,0,0,0,1.0981,1.0981,0,1.0968,1.0968,1.0968,1.0863,1.0861,1.0858,1.0856,1.0848,1.085,1.0852,0,0,0,0,0,0,0,0,0,0,0,0,0,1.0918,1.092,1.0981,1.098,1.098,1.0968,1.0968,1.0968,1.0864,1.0861,1.0858,1.0855,1.0847,1.0849,1.0852,0,0,0,0,0,0,0,0,0,0,0,0,0,1.0929,1.092,1.0981,1.0927,1.0922,1.0968,1.0968,1.0968,1.0865,1.0861,1.0857,1.0853,1.0846,1.0849,1.0852,1.0951,0,0,1.0863,1.0864,0,0,0,0,0,0,0,0,1.0929,1.0932,1.0935,1.0931,1.0925,1.0913,1.0942,1.0962,1.0866,1.0887,1.0856,1.0851,1.0873,1.0874,1.088,1.095,1.095,1.0863,1.0865,1.0866,1.0867,0,0,0,0,0,0,0,1.0928,1.0932,1.0976,1.0935,1.0929,1.0904,1.0902,1.0946,1.0902,1.0884,1.0877,1.0876,1.0869,1.0877,1.0879,1.095,1.0863,1.0866,1.0868,1.0869,1.1097,1.1101,0,0,0,0,0,0,1.0934,1.0932,1.0976,1.0975,1.0917,1.0909,1.0906,1.0921,1.0901,1.0894,1.088,1.0872,1.0873,1.0875,1.0878,1.099,1.0866,1.0869,1.0871,1.1093,1.1098,1.1102,0,0,0,0,0,0,1.0933,1.0939,1.0977,1.0951,1.0954,1.0914,1.0932,1.0923,1.093,1.0897,1.0889,1.0895,1.087,1.0874,1.0932,1.0989,1.0871,1.0874,1.1088,1.1095,1.11,1.1216,0,0,0,0,0,0,1.0932,1.094,1.0976,1.0953,1.0956,1.1031,1.0935,1.0925,1.0936,1.0925,1.091,1.0904,1.0868,1.0928,1.0936,1.0991,1.0876,1.1083,1.1091,1.1098,1.1207,1.1226,1.1241,0,0,0,0,0,1.093,1.1011,1.0978,1.0984,1.1001,1.1034,1.1036,1.0991,1.0941,1.0977,1.0955,1.0904,1.0981,1.0935,1.0943,1.1,1.1079,1.1089,1.1098,1.12,1.1222,1.1241,0,0,0,0,0,0,1.1044,1.1007,1.0971,1.1046,1.1044,1.1016,1.1061,1.1017,1.103,1.102,1.0965,1.0962,1.1029,1.102,1.097,1.1092,1.1021,1.1032,1.1096,1.1117,1.1134,1.1135,1.0879,0,0,0,0,0,1.1078,1.1107,1.1073,1.1143,1.1143,1.1103,1.1116,1.1081,1.1077,1.1076,1.1059,1.1058,1.1082,1.1099,1.1119,1.1205,1.12,1.1248,1.1265,1.1279,1.129,1.1333,1.1353,1.1133,1.1133,1.1132,0,0,1.1148,1.1131,1.1154,1.1165,1.1159,1.1191,1.1103,1.1141,1.1164,1.1083,1.1136,1.1124,1.1119,1.1191,1.1222,1.1186,1.1349,1.1291,1.1302,1.1305,1.1344,1.1365,1.1384,1.1139,1.1138,1.1137,0,0,1.1293,1.1283,1.1339,1.1334,1.1325,1.1297,1.131,1.1289,1.1277,1.1329,1.1268,1.1295,1.1338,1.1336,1.1341,1.1482,1.1435,1.149,1.1579,1.1622,1.1639,1.1654,1.1703,1.1722,1.15,1.1501,1.1501,0,1.1382,1.1426,1.1374,1.1415,1.1422,1.1346,1.1403,1.1401,1.14,1.1407,1.1366,1.1415,1.1407,1.1477,1.1511,1.1518,1.1531,1.1492,1.164,1.1655,1.1668,1.1715,1.1734,1.1507,1.1506,1.1506,1.1505,0,1.1536,1.1567,1.1614,1.1612,1.1623,1.1673,1.1628,1.1646,1.161,1.1587,1.164,1.1627,1.1642,1.1656,1.1623,1.1721,1.1698,1.165,1.1577,1.1697,1.174,1.1757,1.1517,1.1514,1.1512,1.1511,0,0,1.1754,1.172,1.1738,1.1735,1.1718,1.1742,1.1787,1.1799,1.1816,1.1817,1.1854,1.189,1.1843,1.1849,1.1814,1.1851,1.1962,1.1798,1.1797,1.1828,1.2069,1.2105,1.2127,1.193,1.1933,1.1936,1.2069,0,1.1892,1.1965,1.1918,1.1999,1.2027,1.1954,1.1993,1.1988,1.1966,1.1987,1.1964,1.199,1.1928,1.193,1.1964,1.1942,1.201,1.1931,1.1964,1.1966,1.1967,1.2149,1.2189,1.2315,1.2085,1.2088,1.209,0,1.2063,1.2069,1.2152,1.2127,1.2137,1.2173,1.2179,1.22,1.2192,1.2174,1.2178,1.2133,1.2176,1.2103,1.2161,1.2109,1.2119,1.211,1.2113,1.2115,1.2035,1.2155,1.2354,1.2373,1.2116,1.2114,1.2112,0,1.2213,1.2241,1.2294,1.2294,1.2267,1.2293,1.2283,1.2271,1.2281,1.2287,1.2292,1.2304,1.2311,1.2321,1.228,1.2232,1.2343,1.2268,1.2329,1.2331,1.2357,1.2356,1.2559,1.2364,1.2364,1.2363,1.2363,0,1.2372,1.2425,1.236,1.2393,1.245,1.2396,1.2455,1.2437,1.2426,1.2454,1.2393,1.2421,1.2365,1.2388,1.2356,1.2408,1.2412,1.2398,1.2389,1.2404,1.2406,1.241,1.24,1.2368,1.2367,1.2366,1.2365,0,1.2549,1.2508,1.256,1.2529,1.2522,1.2566,1.2539,1.2568,1.2541,1.2578,1.2583,1.2542,1.2565,1.2524,1.2544,1.2522,1.2594,1.2572,1.2596,1.259,1.2653,1.2648,1.2867,1.2893,1.2681,1.2683,1.2685,0,1.2653,1.2692,1.2664,1.2677,1.267,1.2693,1.2701,1.2649,1.266,1.2652,1.2682,1.2699,1.271,1.275,1.2723,1.2736,1.2713,1.2789,1.2715,1.2728,1.2714,1.2712,1.2715,1.2805,1.2808,1.281,1.2811,0,1.2843,1.2819,1.2833,1.2839,1.285,1.2854,1.2852,1.2867,1.2811,1.2827,1.2849,1.2857,1.2874,1.2892,1.2898,1.2889,1.2841,1.2834,1.2849,1.2865,1.2877,1.287,1.2638,1.283,1.2828,1.2827,1.2826,1.2825,1.2986,1.3016,1.3,1.3017,1.301,1.3009,1.3034,1.3009,1.3025,1.3034,1.3002,1.303,1.3019,1.3022,1.3017,1.3039,1.3006,1.3028,1.3033,1.3039,1.3049,1.2873,1.304,1.304,1.3039,1.3039,1.3038,0,1.3171,1.3156,1.3172,1.3171,1.3184,1.3135,1.313,1.3145,1.317,1.3163,1.3174,1.3197,1.3214,1.3186,1.3198,1.3221,1.3199,1.3225,1.3223,1.3222,1.3079,1.3064,1.3243,1.3243,1.3243,1.3242,1.3242,1.3242,1.3269,1.3317,1.3292,1.3335,1.332,1.3346,1.3347,1.3346,1.334,1.3368,1.338,1.3361,1.3346,1.3355,1.3368,1.3359,1.3367,1.3401,1.3385,1.3252,1.3232,1.3213,1.3199,1.3403,1.3403,1.3526,1.3527,1.3528]}]]